Location: ?
(35.4214°N, 139.3011°E)
Time: 22:18:28
(UTC+00:00)

NOSS 3-3 (A) - Pass Details

Date: 14 July 2020
Orbit: 825 x 1387 km, 63.4° (Epoch: 07 August)

Event Time Altitude Azimuth Distance (km) Brightness Sun altitude
Rises 10:14:40 0° 216° (SW) 3,363 6.9 -3.7°
Reaches altitude 10° 10:17:02 10° 219° (SW) 2,458 6.3 -4.1°
Maximum altitude 10:22:39 70° 303° (WNW) 947 4.3 -5.1°
Drops below altitude 10° 10:28:55 10° 27° (NNE) 2,732 6.4 -6.2°
Sets 10:31:41 0° 30° (NNE) 3,767 7.1 -6.7°
